Location: Les Martinières
(47.2667°N, 1.4410°E)
Time: 00:24:08
(UTC+00:00)

Cosmos 540 Rocket - Pass Details

Date: 15 May 2026
Orbit: 735 x 747 km, 74.1° (Epoch: 9 June)

Event Time Altitude Azimuth Distance (km) Brightness Sun altitude
Exits shadow 22:07:44 27° 203° (SSW) 1,422 4.5 -19.8°
Maximum altitude 22:10:38 86° 292° (WNW) 755 3.4 -20.0°
Drops below altitude 10° 22:15:48 10° 22° (NNE) 2,273 6.5 -20.3°
Sets 22:18:10 0° 23° (NNE) 3,200 7.4 -20.5°
